Location: Malanoce
(44.2500°N, 7.4667°E)
Time: 02:09:53
(UTC+00:00)

BlueWalker 3 - Pass Details

Date: 26 January 2026
Orbit: 450 x 461 km, 53.2° (Epoch: 7 February)

Event Time Altitude Azimuth Distance (km) Brightness Sun altitude
Rises 19:14:43 0° 291° (WNW) 2,457 6.5 -29.2°
Reaches altitude 10° 19:17:18 10° 310° (NW) 1,584 5.1 -29.6°
Enters shadow 19:17:49 12° 316° (NW) 1,445 4.8 -29.7°
